Location: Newark
(30.0333°N, 31.2167°E)
Time: 20:14:33
(UTC+00:00)

Tiros 1 - Pass Details

Date: 28 January 2020
Orbit: 631 x 664 km, 48.4° (Epoch: 19 February)

Event Time Altitude Azimuth Distance (km) Brightness Sun altitude
Rises 17:28:13 0° 293° (WNW) 2,980 11.5 -26.0°
Reaches altitude 10° 17:31:09 10° 275° (W) 2,070 10.7 -26.6°
Maximum altitude 17:34:26 18° 232° (SW) 1,583 9.7 -27.3°
Drops below altitude 10° 17:37:42 10° 188° (S) 2,068 9.9 -28.0°
Enters shadow 17:39:00 - 178° (S) 2,443 10.2 -28.3°
Sets 17:40:39 0° 170° (S) 2,977 - -28.7°
